Location: Praha
(50.0830°N, 14.4670°E)
Time: 15:47:16
(UTC+02:00)

ISS - Pass Details

Date: 26 May 2020
Orbit: 417 x 420 km, 51.6° (Epoch: 25 May)

Event Time Altitude Azimuth Distance (km) Brightness Sun altitude
Rises 23:08:42 0° 287° (WNW) 2,368 0.8 -14.5°
Reaches altitude 10° 23:10:50 10° 282° (WNW) 1,502 -0.4 -14.7°
Maximum altitude 23:14:05 47° 207° (SSW) 563 -3.4 -14.9°
Enters shadow 23:15:06 34° 158° (SSE) 710 -3.2 -15.0°
